Find Starlink 36849

NORAD ID: 68304 Int'l Des: 2026-057 Owner: SPXS Country: US Constellation: starlink operational
LEOCIRCULARRETROGRADE

实时位置

正在加载3D地球...

关于 Starlink 36849

正在加载描述...

即将过境

Passes for default location (London). Set your location on the main map for personalized predictions.

高度历史

Loading altitude history...

两行轨道根数

1 68304U 26057L 26125.59591884 .00071032 00000-0 47246-3 0 9995
2 68304 97.2866 250.8762 0002396 99.2300 260.9236 15.75221415 7248
Epoch: May 5, 2026 • Age: 19 hours

当前状态

高度 357.0 km
速度 7.69 km/s
星下点 -32.97°S, 60.26°E
发射日期 Mar 20, 2026
运行时间 0.1 years
类型 internet

技术详情

分类 Payload
质量 575.00 kg
干质量 530.00 kg
总质量 575.00 kg
长度 0.30 m
直径 4.10 m
跨度 29.00 m
形状 Box + pan
制造商 SPXS
平台类型 Starlink V2MO
阶段状态 In Orbit
所有者/国家 SPXS/US

Most Searched